Location: Linz
(48.3300°N, 14.3000°E)
Time: 23:05:48
(UTC+01:00)

Vanguard 1 Rocket - All Passes

Search period start: 19 February 2018 00:00
Search period end: 01 March 2018 00:00
Orbit: 655 x 4222 km, 34.3° (Epoch: 18 February)

Date Brightness Start Highest point End Pass type
(mag) Time Alt. Az. Time Alt. Az. Time Alt. Az.
19 Feb - 00:54:16 10° WSW 01:18:01 56° S 01:39:56 10° ESE visible
19 Feb - 03:24:20 10° W 03:48:25 49° SSW 04:05:59 10° SE visible
19 Feb - 05:58:23 10° W 06:15:17 26° SW 06:27:20 10° S visible
19 Feb - 21:18:35 10° SSW 21:34:55 32° SE 21:55:20 10° E visible
19 Feb - 23:41:52 10° SW 00:03:39 53° SSE 00:26:57 10° E visible
20 Feb - 02:10:05 10° WSW 02:34:34 55° S 02:54:43 10° ESE visible
20 Feb - 04:42:02 10° W 05:03:22 37° SW 05:18:28 10° SSE visible
20 Feb - 07:23:22 10° WSW 07:27:53 11° WSW 07:31:59 10° SW daylight
20 Feb - 20:10:23 10° S 20:22:52 22° SE 20:38:34 10° E visible
20 Feb - 22:30:29 10° SW 22:49:45 46° SSE 23:13:05 10° E visible
21 Feb - 00:56:42 10° WSW 01:20:12 57° S 01:42:35 10° ESE visible
21 Feb - 03:26:51 10° W 03:50:28 46° SSW 04:08:21 10° SE visible
21 Feb - 06:01:43 10° W 06:16:57 22° SW 06:28:30 10° S visible
21 Feb - 19:07:10 10° SE 19:11:42 11° ESE 19:16:39 10° ESE visible
21 Feb - 21:20:12 10° SSW 21:36:38 36° SE 21:58:13 10° E visible
21 Feb - 23:44:15 10° WSW 00:05:46 55° SSE 00:29:35 10° E visible
22 Feb - 02:12:36 10° W 02:36:42 53° SSW 02:57:13 10° SE visible
22 Feb - 04:44:49 10° W 05:05:08 32° SW 05:20:18 10° SSE visible
22 Feb - 20:11:17 10° S 20:24:27 26° SE 20:42:02 10° E visible
22 Feb - 22:32:42 10° SW 22:51:44 49° SSE 23:15:42 10° E visible
23 Feb - 00:59:15 10° WSW 01:22:23 57° S 01:45:07 10° ESE visible
23 Feb - 03:29:28 10° W 03:52:24 42° SSW 04:10:30 10° SSE visible
23 Feb - 06:05:43 10° W 06:18:29 17° SW 06:28:53 10° SSW visible
23 Feb - 19:04:56 10° SSE 19:13:11 15° ESE 19:23:17 10° E visible
23 Feb - 21:22:10 10° SSW 21:38:28 41° SSE 22:00:56 10° E visible
23 Feb - 23:46:45 10° WSW 00:07:55 56° S 00:32:07 10° ESE visible
24 Feb - 02:15:13 10° W 02:38:46 50° SSW 02:59:32 10° SE visible
24 Feb - 04:47:50 10° W 05:06:48 28° SW 05:21:44 10° S visible
24 Feb - 20:12:45 10° S 20:26:09 30° SE 20:45:05 10° E visible
24 Feb - 22:35:08 10° SW 22:53:49 52° SSE 23:18:14 10° E visible
25 Feb - 01:01:53 10° WSW 01:24:32 55° S 01:47:33 10° ESE visible
25 Feb - 03:32:14 10° W 03:54:13 38° SW 04:12:23 10° SSE visible
25 Feb - 06:11:05 10° W 06:19:56 13° WSW 06:27:45 10° SW visible
25 Feb - 19:05:06 10° SSE 19:14:45 19° SE 19:27:37 10° E visible
25 Feb - 21:24:24 10° SW 21:40:25 44° SSE 22:03:29 10° E visible
25 Feb - 23:49:24 10° WSW 00:10:07 56° S 00:34:34 10° ESE visible
26 Feb - 02:17:55 10° W 02:40:46 47° SSW 03:01:40 10° SE visible
26 Feb - 04:51:15 10° W 05:08:23 24° SW 05:22:37 10° S visible
26 Feb - 20:14:38 10° SSW 20:27:58 34° SE 20:47:52 10° E visible
26 Feb - 22:37:42 10° WSW 22:55:59 54° SSE 23:20:40 10° E visible
27 Feb - 01:04:36 10° W 01:26:40 53° SSW 01:49:49 10° SE visible
27 Feb - 03:35:10 10° W 03:55:57 34° SW 04:13:55 10° SSE visible
27 Feb - 19:06:12 10° S 19:16:28 23° SE 19:31:07 10° E visible
27 Feb - 21:26:49 10° SW 21:42:31 48° SSE 22:05:56 10° E visible
27 Feb - 23:52:07 10° WSW 00:12:20 56° S 00:36:54 10° ESE visible
28 Feb - 02:20:44 10° W 02:42:41 43° SSW 03:03:33 10° SSE visible
28 Feb - 04:55:18 10° W 05:09:53 19° SW 05:22:41 10° SSW visible
28 Feb - 18:01:05 10° SE 18:05:47 12° ESE 18:11:19 10° ESE visible
28 Feb - 20:16:49 10° SSW 20:29:56 38° SE 20:50:27 10° E visible
28 Feb - 22:40:25 10° WSW 22:58:13 55° S 23:23:02 10° ESE visible
